Total_Precipitation_Accumulation
0.97 0.88 0.88 1.02 0.98 0.97 1.07 1.16 1.03 0.94 0.94 0.91 0.86 0.81 0.76 0.70 0.69 0.60 0.65 0.68 0.77 0.98 1.31 1.36 1.17 0.92 0.91 1.16 1.18 1.14 1.14 1.22 1.47 1.51 1.45 1.44 1.50 1.53 1.30 1.03 0.86 0.72 0.57
1.02 1.03 0.92 1.00 1.13 1.15 1.11 1.10 1.08 0.98 0.93 0.95 0.91 0.91 0.89 0.73 0.72 0.71 0.72 0.69 0.60 0.66 1.00 1.34 1.31 1.13 1.13 1.26 1.23 1.21 1.15 1.17 1.35 1.45 1.46 1.42 1.57 1.68 1.36 1.02 0.90 0.77 0.66
1.03 1.04 0.92 0.95 1.08 1.25 1.21 1.13 1.06 1.03 0.88 0.83 0.91 0.95 0.96 0.84 0.80 0.85 0.78 0.77 0.62 0.59 0.79 1.23 1.45 1.33 1.34 1.54 1.37 1.23 1.14 1.14 1.17 1.30 1.45 1.47 1.51 1.59 1.31 1.05 0.90 0.82 0.71
1.04 1.12 1.03 0.98 1.13 1.30 1.44 1.46 1.28 1.18 1.05 0.96 1.00 0.98 0.93 0.96 0.92 0.86 0.83 0.87 0.81 0.68 0.72 0.89 1.22 1.50 1.58 1.73 1.54 1.33 1.15 1.02 0.98 1.08 1.21 1.27 1.30 1.34 1.24 1.09 0.95 0.87 0.78
0.96 1.17 1.24 1.19 1.22 1.37 1.41 1.43 1.41 1.24 1.20 1.15 1.03 0.96 0.88 0.91 0.96 0.81 0.83 0.89 0.94 0.85 0.81 0.67 0.73 0.95 1.28 1.76 1.80 1.45 1.25 1.07 0.93 0.93 1.02 1.02 1.04 1.08 1.10 1.03 0.90 0.84 0.84
1.18 1.34 1.42 1.40 1.40 1.45 1.41 1.52 1.67 1.44 1.27 1.28 1.18 1.02 0.91 0.87 0.88 0.85 0.87 0.89 0.98 0.96 0.90 0.75 0.68 0.54 0.74 1.29 1.73 1.49 1.41 1.26 1.02 0.94 0.98 0.95 0.90 0.88 0.90 0.87 0.84 0.83 0.78
1.40 1.54 1.63 1.65 1.58 1.49 1.52 1.68 2.00 1.88 1.52 1.36 1.40 1.27 1.05 0.92 0.95 0.87 0.90 0.98 0.98 0.98 1.05 0.97 0.81 0.74 0.64 0.68 1.07 1.39 1.40 1.42 1.28 1.12 1.06 1.03 0.91 0.80 0.75 0.71 0.73 0.75 0.75
1.49 1.57 1.78 1.88 1.81 1.77 1.85 1.85 2.04 2.18 1.93 1.70 1.66 1.83 1.61 1.34 0.98 0.78 0.83 0.90 0.97 1.06 1.04 1.08 1.00 0.90 0.87 0.78 0.61 0.82 1.03 1.21 1.39 1.29 1.19 1.15 0.99 0.80 0.71 0.68 0.66 0.68 0.71
1.70 1.66 1.77 1.98 1.94 1.88 1.88 2.04 2.27 2.51 2.47 2.24 1.99 2.07 1.82 1.61 1.47 0.97 0.75 0.83 0.93 1.04 1.06 1.16 1.17 1.06 1.02 1.06 0.82 0.57 0.59 0.78 1.17 1.34 1.32 1.21 1.09 0.93 0.84 0.74 0.69 0.67 0.64
1.62 1.61 1.72 1.93 2.06 2.14 2.17 2.23 2.22 2.49 2.68 2.53 2.43 2.13 1.84 1.71 1.78 1.53 1.04 0.81 0.86 0.93 0.98 1.02 1.12 1.18 1.16 1.16 1.04 0.65 0.47 0.45 0.83 1.29 1.48 1.35 1.15 1.01 0.94 0.86 0.75 0.72 0.66
1.70 1.61 1.66 1.74 1.78 1.86 1.97 2.10 2.18 2.37 2.47 2.60 2.59 2.42 2.18 2.00 1.57 1.54 1.53 1.25 1.01 0.82 0.84 0.96 1.12 1.20 1.22 1.18 1.20 0.86 0.60 0.42 0.51 0.96 1.42 1.62 1.45 1.24 1.12 0.98 0.84 0.75 0.67
1.67 1.58 1.53 1.64 1.66 1.66 1.78 1.91 2.00 2.21 2.36 2.47 2.53 2.41 2.25 2.18 1.93 1.67 1.52 1.48 1.36 1.04 0.86 0.87 0.97 1.08 1.16 1.17 1.10 1.06 0.81 0.54 0.45 0.63 0.95 1.34 1.51 1.45 1.32 1.21 1.10 0.93 0.85
1.31 1.30 1.24 1.30 1.43 1.48 1.66 1.73 1.67 1.72 1.88 2.08 2.24 2.26 2.21 2.10 2.09 2.00 1.84 1.68 1.48 1.15 1.00 0.86 0.82 0.96 1.06 1.20 1.21 1.28 0.92 0.68 0.54 0.52 0.62 0.79 1.00 1.20 1.34 1.38 1.43 1.42 1.32
1.01 0.97 0.97 0.98 1.04 1.13 1.34 1.55 1.53 1.55 1.61 1.69 1.78 2.03 2.11 2.04 2.06 1.91 1.78 1.78 1.58 1.33 1.13 0.90 0.75 0.76 0.88 1.04 1.36 1.46 0.96 0.81 0.66 0.59 0.61 0.61 0.62 0.71 0.97 1.18 1.34 1.52 1.58
0.78 0.76 0.78 0.86 0.92 0.91 1.02 1.15 1.33 1.41 1.46 1.53 1.57 1.72 1.80 1.84 1.81 1.70 1.71 1.70 1.60 1.38 1.22 1.06 0.94 0.85 0.86 0.93 1.24 1.17 1.01 0.95 0.84 0.74 0.68 0.64 0.62 0.57 0.64 0.77 0.91 1.09 1.21
0.71 0.70 0.67 0.68 0.74 0.77 0.87 0.98 1.03 1.14 1.21 1.37 1.54 1.66 1.66 1.69 1.72 1.65 1.60 1.67 1.63 1.45 1.24 1.07 0.95 0.89 0.99 0.98 1.17 1.04 1.11 1.19 0.93 0.79 0.72 0.71 0.65 0.57 0.48 0.45 0.48 0.57 0.67
0.55 0.56 0.59 0.65 0.65 0.67 0.69 0.70 0.75 0.81 0.88 0.99 1.04 1.15 1.35 1.55 1.61 1.60 1.63 1.66 1.66 1.56 1.34 1.21 1.00 0.97 1.12 1.13 1.13 1.07 1.14 1.19 0.97 0.85 0.70 0.66 0.65 0.59 0.55 0.48 0.43 0.42 0.45
0.47 0.49 0.54 0.58 0.58 0.64 0.66 0.66 0.65 0.68 0.77 0.85 0.85 0.85 0.95 1.18 1.34 1.45 1.51 1.53 1.60 1.61 1.48 1.44 1.33 1.10 1.06 1.13 1.25 1.32 1.26 1.22 1.18 1.13 0.99 0.79 0.70 0.65 0.60 0.55 0.48 0.41 0.40
0.59 0.62 0.61 0.64 0.62 0.64 0.64 0.65 0.68 0.69 0.72 0.76 0.79 0.81 0.87 0.97 1.12 1.20 1.31 1.41 1.50 1.62 1.61 1.44 1.46 1.39 1.20 1.18 1.23 1.31 1.37 1.45 1.33 1.27 1.31 1.14 0.93 0.82 0.75 0.67 0.58 0.50 0.46
0.51 0.54 0.63 0.71 0.79 0.83 0.82 0.78 0.77 0.74 0.70 0.71 0.77 0.84 0.86 0.87 0.98 1.19 1.33 1.40 1.43 1.53 1.65 1.59 1.52 1.49 1.34 1.27 1.26 1.29 1.42 1.52 1.51 1.31 1.23 1.19 1.13 1.01 0.87 0.79 0.70 0.61 0.57
0.44 0.45 0.53 0.62 0.72 0.81 0.86 0.86 0.72 0.61 0.62 0.67 0.67 0.68 0.76 0.83 0.86 1.00 1.16 1.40 1.42 1.52 1.59 1.66 1.58 1.43 1.31 1.23 1.18 1.19 1.29 1.48 1.54 1.51 1.44 1.26 1.15 0.98 0.87 0.82 0.80 0.75 0.68
0.38 0.40 0.44 0.42 0.45 0.50 0.66 0.66 0.54 0.45 0.50 0.60 0.67 0.69 0.69 0.70 0.72 0.76 0.79 1.04 1.24 1.35 1.45 1.47 1.52 1.38 1.26 1.20 1.28 1.27 1.22 1.28 1.39 1.41 1.32 1.38 1.35 1.17 1.02 0.89 0.94 0.98 0.93
0.34 0.36 0.32 0.28 0.30 0.34 0.39 0.38 0.43 0.45 0.48 0.52 0.61 0.70 0.74 0.72 0.78 0.86 0.82 0.86 0.95 1.03 1.14 1.26 1.30 1.24 1.20 1.16 1.24 1.28 1.25 1.20 1.12 1.20 1.21 1.28 1.35 1.24 1.11 1.00 0.99 0.96 0.94
0.29 0.36 0.31 0.29 0.33 0.30 0.32 0.37 0.40 0.43 0.56 0.62 0.61 0.62 0.73 0.79 0.84 0.99 0.98 1.06 0.99 0.89 0.87 0.92 1.06 1.11 1.06 1.16 1.25 1.41 1.46 1.34 1.24 1.26 1.24 1.17 1.14 1.09 1.02 1.02 1.02 0.89 0.84
0.20 0.19 0.23 0.37 0.38 0.34 0.42 0.40 0.35 0.42 0.55 0.62 0.58 0.61 0.73 0.83 0.96 1.06 1.11 1.14 1.04 0.94 0.97 1.05 1.12 1.17 1.18 1.26 1.33 1.40 1.44 1.43 1.34 1.31 1.21 1.08 1.00 0.99 1.00 0.97 0.94 0.94 0.89
0.09 0.10 0.14 0.27 0.34 0.36 0.36 0.28 0.28 0.40 0.53 0.61 0.62 0.63 0.85 0.86 0.93 0.98 1.04 1.16 1.18 1.04 0.97 0.99 1.03 1.05 1.06 1.16 1.35 1.37 1.46 1.53 1.38 1.31 1.21 1.06 1.01 1.11 1.18 1.05 0.91 0.86 0.85